| time (UTC) | temp F | wind direction | speed MPH | gust MPH | rain 1hr in | rain 24hr in | rain mn in | humidity % | barometer mb |
| 20260507180217 | 68 | 78 | 2.0 | 6.0 | 0.00 | 0.16 | 0.00 | 24 | 1017.2 |
| 20260507175403 | 67 | 102 | 2.0 | 7.0 | 0.00 | 0.17 | 0.00 | 22 | 1017.3 |
| 20260507174503 | 67 | 105 | 1.0 | 7.0 | 0.00 | 0.17 | 0.00 | 21 | 1017.3 |
| 20260507173603 | 66 | 222 | 1.0 | 3.0 | 0.00 | 0.18 | 0.00 | 26 | 1017.5 |
| 20260507172703 | 65 | 141 | 1.0 | 6.0 | 0.00 | 0.18 | 0.00 | 25 | 1017.7 |
| 20260507171803 | 64 | 258 | 1.0 | 4.0 | 0.00 | 0.18 | 0.00 | 25 | 1017.7 |
| 20260507171118 | 64 | 275 | 2.0 | 4.0 | 0.00 | 0.19 | 0.00 | 25 | 1017.9 |
| 20260507170003 | 64 | 271 | 2.0 | 8.0 | 0.00 | 0.19 | 0.00 | 24 | 1017.8 |
| 20260507165616 | 64 | 217 | 1.0 | 3.0 | 0.00 | 0.19 | 0.00 | 28 | 1017.9 |
| 20260507164503 | 64 | 236 | 0.0 | 3.0 | 0.00 | 0.19 | 0.00 | 24 | 1018.1 |
| 20260507163603 | 62 | 234 | 1.0 | 5.0 | 0.00 | 0.20 | 0.00 | 25 | 1018.1 |
| 20260507162703 | 62 | 259 | 1.0 | 3.0 | 0.00 | 0.21 | 0.00 | 25 | 1018.0 |
| 20260507161803 | 61 | 267 | 1.0 | 4.0 | 0.00 | 0.21 | 0.00 | 26 | 1018.1 |
| 20260507160903 | 61 | 275 | 2.0 | 6.0 | 0.00 | 0.22 | 0.00 | 27 | 1018.0 |
| 20260507160003 | 60 | 287 | 3.0 | 8.0 | 0.00 | 0.23 | 0.00 | 30 | 1018.2 |
| 20260507155616 | 60 | 286 | 3.0 | 8.0 | 0.00 | 0.23 | 0.00 | 27 | 1018.1 |
| 20260507154503 | 59 | 288 | 3.0 | 8.0 | 0.00 | 0.24 | 0.00 | 30 | 1018.2 |
| 20260507153603 | 58 | 282 | 3.0 | 10.0 | 0.00 | 0.25 | 0.00 | 35 | 1018.3 |
| 20260507152703 | 58 | 291 | 2.0 | 4.0 | 0.00 | 0.25 | 0.00 | 34 | 1018.4 |
| 20260507152017 | 57 | 292 | 2.0 | 6.0 | 0.00 | 0.26 | 0.00 | 34 | 1018.4 |
| 20260507151117 | 56 | 278 | 3.0 | 7.0 | 0.00 | 0.26 | 0.00 | 34 | 1018.4 |
| 20260507150003 | 55 | 292 | 2.0 | 8.0 | 0.00 | 0.26 | 0.00 | 34 | 1018.3 |
| 20260507145403 | 54 | 282 | 2.0 | 5.0 | 0.00 | 0.26 | 0.00 | 41 | 1018.4 |
| 20260507144503 | 53 | 293 | 2.0 | 5.0 | 0.00 | 0.27 | 0.00 | 42 | 1018.4 |
| 20260507143603 | 52 | 293 | 2.0 | 6.0 | 0.00 | 0.27 | 0.00 | 43 | 1018.4 |
| 20260507142918 | 51 | 294 | 2.0 | 6.0 | 0.00 | 0.27 | 0.00 | 45 | 1018.2 |
| 20260507141803 | 49 | 302 | 2.0 | 4.0 | 0.00 | 0.27 | 0.00 | 45 | 1018.2 |
| 20260507141116 | 48 | 300 | 2.0 | 4.0 | 0.00 | 0.27 | 0.00 | 48 | 1018.5 |
| 20260507140216 | 47 | 300 | 2.0 | 4.0 | 0.00 | 0.27 | 0.00 | 50 | 1018.5 |
| 20260507135403 | 46 | 301 | 2.0 | 5.0 | 0.00 | 0.27 | 0.00 | 50 | 1018.7 |
| 20260507134503 | 45 | 300 | 2.0 | 5.0 | 0.00 | 0.27 | 0.00 | 50 | 1018.6 |
| 20260507133603 | 44 | 300 | 2.0 | 5.0 | 0.00 | 0.27 | 0.00 | 53 | 1018.4 |
| 20260507132703 | 43 | 302 | 2.0 | 4.0 | 0.00 | 0.27 | 0.00 | 53 | 1018.4 |
| 20260507131803 | 42 | 300 | 2.0 | 4.0 | 0.00 | 0.27 | 0.00 | 55 | 1018.3 |
| 20260507131116 | 41 | 303 | 2.0 | 4.0 | 0.00 | 0.27 | 0.00 | 56 | 1018.4 |
| 20260507130003 | 39 | 301 | 2.0 | 8.0 | 0.00 | 0.27 | 0.00 | 58 | 1018.6 |
| 20260507125403 | 38 | 303 | 2.0 | 8.0 | 0.00 | 0.27 | 0.00 | 61 | 1018.4 |
| 20260507124503 | 36 | 293 | 1.0 | 5.0 | 0.00 | 0.27 | 0.00 | 66 | 1018.2 |
| 20260507123818 | 34 | 294 | 0.0 | 3.0 | 0.00 | 0.27 | 0.00 | 69 | 1018.4 |
| 20260507122703 | 33 | 304 | 0.0 | 2.0 | 0.00 | 0.27 | 0.00 | 72 | 1018.2 |
| 20260507121803 | 33 | 304 | 0.0 | 1.0 | 0.00 | 0.27 | 0.00 | 73 | 1018.3 |
| 20260507120903 | 33 | 0 | 0.0 | 0.0 | 0.00 | 0.27 | 0.00 | 71 | 1018.2 |
| 20260507120003 | 33 | 304 | 0.0 | 2.0 | 0.00 | 0.27 | 0.00 | 72 | 1018.2 |
| 20260507115403 | 33 | 301 | 1.0 | 3.0 | 0.00 | 0.27 | 0.00 | 73 | 1018.2 |
| 20260507114718 | 32 | 303 | 2.0 | 4.0 | 0.00 | 0.27 | 0.00 | 74 | 1018.3 |
| 20260507113603 | 31 | 320 | 2.0 | 4.0 | 0.00 | 0.27 | 0.00 | 78 | 1018.0 |
| 20260507112703 | 31 | 305 | 1.0 | 3.0 | 0.00 | 0.27 | 0.00 | 80 | 1018.2 |
| 20260507111803 | 31 | 304 | 0.0 | 2.0 | 0.00 | 0.27 | 0.00 | 81 | 1018.2 |
| 20260507110903 | 31 | 310 | 0.0 | 2.0 | 0.00 | 0.27 | 0.00 | 80 | 1018.2 |
| 20260507110003 | 32 | 306 | 0.0 | 2.0 | 0.00 | 0.27 | 0.00 | 80 | 1018.2 |
| 20260507105618 | 32 | 297 | 1.0 | 3.0 | 0.00 | 0.27 | 0.00 | 80 | 1018.2 |
| 20260507104503 | 32 | 301 | 1.0 | 3.0 | 0.00 | 0.27 | 0.00 | 81 | 1018.3 |
| 20260507103603 | 31 | 301 | 1.0 | 2.0 | 0.00 | 0.27 | 0.00 | 82 | 1018.5 |
| 20260507102916 | 31 | 301 | 1.0 | 3.0 | 0.00 | 0.27 | 0.00 | 83 | 1018.5 |
| 20260507101803 | 30 | 284 | 0.0 | 2.0 | 0.00 | 0.27 | 0.00 | 87 | 1018.5 |
| 20260507100903 | 30 | 299 | 0.0 | 1.0 | 0.00 | 0.27 | 0.00 | 89 | 1018.6 |
| 20260507100003 | 30 | 322 | 1.0 | 3.0 | 0.00 | 0.27 | 0.00 | 89 | 1018.6 |
| 20260507095403 | 30 | 331 | 1.0 | 3.0 | 0.00 | 0.27 | 0.00 | 90 | 1018.6 |
| 20260507094503 | 30 | 317 | 0.0 | 2.0 | 0.00 | 0.27 | 0.00 | 90 | 1018.8 |
| 20260507093603 | 30 | 0 | 0.0 | 1.0 | 0.00 | 0.27 | 0.00 | 90 | 1018.8 |
| 20260507092703 | 30 | 312 | 0.0 | 1.0 | 0.00 | 0.27 | 0.00 | 90 | 1019.0 |
| 20260507091803 | 30 | 297 | 1.0 | 4.0 | 0.00 | 0.27 | 0.00 | 91 | 1019.0 |
| 20260507090903 | 30 | 307 | 1.0 | 4.0 | 0.00 | 0.27 | 0.00 | 91 | 1019.2 |
| 20260507090003 | 29 | 303 | 1.0 | 3.0 | 0.00 | 0.27 | 0.00 | 91 | 1019.0 |
| 20260507085403 | 29 | 302 | 1.0 | 4.0 | 0.00 | 0.27 | 0.00 | 91 | 1019.1 |
| 20260507084503 | 29 | 299 | 1.0 | 3.0 | 0.00 | 0.27 | 0.00 | 91 | 1019.1 |
| 20260507083603 | 29 | 344 | 0.0 | 1.0 | 0.00 | 0.27 | 0.00 | 91 | 1019.2 |
| 20260507082703 | 29 | 0 | 0.0 | 0.0 | 0.00 | 0.27 | 0.00 | 91 | 1019.4 |
| 20260507081803 | 30 | 326 | 0.0 | 2.0 | 0.00 | 0.27 | 0.00 | 91 | 1019.4 |
| 20260507080903 | 29 | 326 | 0.0 | 2.0 | 0.00 | 0.27 | 0.00 | 91 | 1019.4 |
| 20260507080003 | 29 | 0 | 0.0 | 0.0 | 0.00 | 0.27 | 0.00 | 91 | 1019.5 |
| 20260507075403 | 29 | 0 | 0.0 | 0.0 | 0.00 | 0.27 | 0.00 | 91 | 1019.7 |
| 20260507074503 | 30 | 329 | 0.0 | 1.0 | 0.00 | 0.27 | 0.00 | 91 | 1019.9 |
| 20260507073603 | 30 | 329 | 0.0 | 2.0 | 0.00 | 0.27 | 0.00 | 91 | 1020.0 |
| 20260507072703 | 30 | 329 | 0.0 | 1.0 | 0.00 | 0.27 | 0.00 | 91 | 1020.0 |
| 20260507071803 | 30 | 0 | 0.0 | 1.0 | 0.00 | 0.27 | 0.00 | 90 | 1020.1 |
| 20260507070903 | 30 | 329 | 0.0 | 1.0 | 0.00 | 0.27 | 0.00 | 90 | 1020.1 |
| 20260507070005 | 30 | 329 | 0.0 | 2.0 | 0.00 | 0.27 | 0.00 | 90 | 1020.1 |
| 20260507065403 | 30 | 0 | 0.0 | 0.0 | 0.00 | 0.27 | 0.00 | 91 | 1020.3 |
| 20260507064503 | 30 | 0 | 0.0 | 0.0 | 0.00 | 0.27 | 0.00 | 90 | 1020.4 |
| 20260507063603 | 30 | 0 | 0.0 | 0.0 | 0.00 | 0.27 | 0.00 | 90 | 1020.4 |
| 20260507062703 | 30 | 0 | 0.0 | 0.0 | 0.00 | 0.27 | 0.00 | 90 | 1020.4 |
| 20260507061803 | 30 | 0 | 0.0 | 0.0 | 0.00 | 0.27 | 0.00 | 90 | 1020.3 |
| 20260507060903 | 30 | 0 | 0.0 | 0.0 | 0.00 | 0.27 | 0.00 | 90 | 1020.2 |
| 20260507060004 | 30 | 0 | 0.0 | 0.0 | 0.00 | 0.27 | 0.00 | 90 | 1020.3 |
| 20260507055403 | 30 | 0 | 0.0 | 0.0 | 0.00 | 0.27 | 0.27 | 89 | 1020.3 |
| 20260507054503 | 30 | 0 | 0.0 | 0.0 | 0.00 | 0.27 | 0.27 | 89 | 1020.2 |
| 20260507053603 | 30 | 0 | 0.0 | 0.0 | 0.00 | 0.27 | 0.27 | 89 | 1020.0 |
| 20260507052918 | 30 | 0 | 0.0 | 1.0 | 0.00 | 0.27 | 0.27 | 88 | 1020.1 |
| 20260507051803 | 30 | 0 | 0.0 | 0.0 | 0.00 | 0.27 | 0.27 | 88 | 1020.0 |
| 20260507050903 | 31 | 0 | 0.0 | 0.0 | 0.00 | 0.27 | 0.27 | 88 | 1019.9 |
| 20260507050003 | 31 | 98 | 0.0 | 1.0 | 0.00 | 0.27 | 0.27 | 88 | 1019.8 |
| 20260507045403 | 31 | 98 | 0.0 | 1.0 | 0.00 | 0.27 | 0.27 | 88 | 1019.8 |
| 20260507044503 | 31 | 0 | 0.0 | 0.0 | 0.00 | 0.27 | 0.27 | 87 | 1019.9 |
| 20260507043603 | 32 | 0 | 0.0 | 0.0 | 0.00 | 0.27 | 0.27 | 86 | 1020.0 |
| 20260507042703 | 32 | 98 | 0.0 | 1.0 | 0.00 | 0.27 | 0.27 | 86 | 1020.0 |
| 20260507041803 | 33 | 0 | 0.0 | 0.0 | 0.00 | 0.27 | 0.27 | 86 | 1019.8 |
| 20260507040903 | 33 | 98 | 0.0 | 1.0 | 0.00 | 0.27 | 0.27 | 86 | 1019.9 |
| 20260507040003 | 33 | 98 | 0.0 | 2.0 | 0.00 | 0.27 | 0.27 | 86 | 1019.8 |
| 20260507035403 | 34 | 98 | 0.0 | 2.0 | 0.00 | 0.27 | 0.27 | 86 | 1019.7 |
| 20260507034503 | 34 | 98 | 0.0 | 2.0 | 0.00 | 0.27 | 0.27 | 86 | 1019.9 |
| 20260507033603 | 34 | 97 | 0.0 | 3.0 | 0.00 | 0.27 | 0.27 | 86 | 1019.7 |
| 20260507032703 | 34 | 95 | 0.0 | 3.0 | 0.00 | 0.27 | 0.27 | 86 | 1019.7 |
| 20260507031803 | 34 | 100 | 1.0 | 6.0 | 0.00 | 0.27 | 0.27 | 85 | 1019.6 |
| 20260507031117 | 34 | 103 | 1.0 | 4.0 | 0.00 | 0.27 | 0.27 | 84 | 1019.5 |
| 20260507030216 | 35 | 102 | 1.0 | 3.0 | 0.00 | 0.27 | 0.27 | 83 | 1019.4 |
| 20260507025619 | 35 | 101 | 1.0 | 2.0 | 0.00 | 0.27 | 0.27 | 82 | 1019.3 |
| 20260507024503 | 35 | 100 | 0.0 | 2.0 | 0.00 | 0.28 | 0.27 | 81 | 1019.3 |
| 20260507023603 | 35 | 115 | 0.0 | 2.0 | 0.00 | 0.28 | 0.27 | 81 | 1019.4 |
| 20260507022703 | 36 | 115 | 0.0 | 2.0 | 0.00 | 0.29 | 0.27 | 80 | 1019.2 |
| 20260507021803 | 36 | 129 | 0.0 | 2.0 | 0.00 | 0.29 | 0.27 | 79 | 1019.2 |
| 20260507020903 | 36 | 127 | 1.0 | 3.0 | 0.00 | 0.29 | 0.27 | 78 | 1019.2 |
| 20260507020003 | 37 | 123 | 1.0 | 3.0 | 0.00 | 0.29 | 0.27 | 77 | 1019.2 |
| 20260507015403 | 37 | 119 | 1.0 | 2.0 | 0.00 | 0.29 | 0.27 | 75 | 1019.2 |
| 20260507014718 | 38 | 112 | 1.0 | 4.0 | 0.00 | 0.29 | 0.27 | 74 | 1019.2 |
| 20260507013603 | 39 | 142 | 1.0 | 3.0 | 0.00 | 0.29 | 0.27 | 73 | 1019.3 |
| 20260507012703 | 39 | 154 | 1.0 | 2.0 | 0.00 | 0.30 | 0.27 | 73 | 1019.3 |
| 20260507011803 | 39 | 160 | 1.0 | 4.0 | 0.00 | 0.30 | 0.27 | 73 | 1019.1 |
| 20260507010003 | 39 | 140 | 1.0 | 6.0 | 0.00 | 0.30 | 0.27 | 71 | 1019.2 |
| 20260507005403 | 39 | 119 | 1.0 | 6.0 | 0.00 | 0.30 | 0.27 | 72 | 1019.1 |
| 20260507004503 | 40 | 147 | 1.0 | 3.0 | 0.00 | 0.30 | 0.27 | 70 | 1019.2 |
| 20260507003603 | 40 | 137 | 1.0 | 3.0 | 0.00 | 0.30 | 0.27 | 70 | 1019.0 |
| 20260507002703 | 40 | 123 | 1.0 | 6.0 | 0.00 | 0.30 | 0.27 | 70 | 1019.0 |
| 20260507001803 | 41 | 139 | 1.0 | 3.0 | 0.00 | 0.30 | 0.27 | 70 | 1018.9 |
| 20260507000903 | 41 | 120 | 1.0 | 4.0 | 0.00 | 0.30 | 0.27 | 69 | 1018.9 |
| 20260507000003 | 42 | 84 | 1.0 | 4.0 | 0.00 | 0.30 | 0.27 | 69 | 1019.0 |
| 20260506235403 | 42 | 212 | 1.0 | 2.0 | 0.00 | 0.30 | 0.27 | 71 | 1018.8 |
| 20260506234503 | 42 | 127 | 1.0 | 3.0 | 0.00 | 0.30 | 0.27 | 71 | 1019.1 |
| 20260506233817 | 42 | 103 | 1.0 | 6.0 | 0.00 | 0.30 | 0.27 | 72 | 1019.2 |
| 20260506232703 | 42 | 223 | 1.0 | 3.0 | 0.00 | 0.30 | 0.27 | 76 | 1019.1 |
| 20260506231803 | 41 | 195 | 1.0 | 3.0 | 0.00 | 0.31 | 0.27 | 76 | 1019.1 |
| 20260506230903 | 40 | 150 | 1.0 | 4.0 | 0.00 | 0.31 | 0.27 | 76 | 1019.1 |
| 20260506230003 | 40 | 178 | 1.0 | 4.0 | 0.00 | 0.31 | 0.27 | 77 | 1019.1 |
| 20260506225403 | 39 | 194 | 0.0 | 2.0 | 0.00 | 0.32 | 0.27 | 77 | 1019.0 |
| 20260506224503 | 39 | 222 | 0.0 | 2.0 | 0.00 | 0.32 | 0.27 | 77 | 1019.0 |
| 20260506223603 | 39 | 190 | 1.0 | 2.0 | 0.00 | 0.32 | 0.27 | 77 | 1018.9 |
| 20260506222703 | 38 | 209 | 1.0 | 2.0 | 0.00 | 0.32 | 0.27 | 78 | 1019.0 |
| 20260506222019 | 38 | 209 | 0.0 | 2.0 | 0.00 | 0.32 | 0.27 | 78 | 1019.0 |
| 20260506220903 | 38 | 227 | 0.0 | 2.0 | 0.00 | 0.32 | 0.27 | 77 | 1019.0 |
| 20260506220218 | 38 | 275 | 0.0 | 2.0 | 0.00 | 0.32 | 0.27 | 75 | 1019.2 |
| 20260506215403 | 38 | 291 | 0.0 | 1.0 | 0.00 | 0.32 | 0.27 | 75 | 1019.1 |
| 20260506214503 | 38 | 280 | 1.0 | 3.0 | 0.00 | 0.32 | 0.27 | 74 | 1019.1 |
| 20260506213816 | 38 | 276 | 2.0 | 6.0 | 0.00 | 0.32 | 0.27 | 76 | 1019.0 |
| 20260506212915 | 38 | 284 | 1.0 | 6.0 | 0.01 | 0.32 | 0.27 | 75 | 1019.1 |
| 20260506212019 | 38 | 282 | 1.0 | 4.0 | 0.01 | 0.32 | 0.27 | 78 | 1019.1 |
| 20260506211118 | 38 | 262 | 1.0 | 4.0 | 0.01 | 0.32 | 0.27 | 76 | 1019.0 |
| 20260506210003 | 38 | 311 | 0.0 | 3.0 | 0.02 | 0.33 | 0.27 | 81 | 1019.2 |
| 20260506205403 | 38 | 302 | 0.0 | 3.0 | 0.03 | 0.33 | 0.27 | 80 | 1019.0 |
| 20260506204503 | 38 | 82 | 1.0 | 4.0 | 0.05 | 0.33 | 0.27 | 84 | 1019.1 |
| 20260506203603 | 37 | 3 | 1.0 | 4.0 | 0.05 | 0.33 | 0.27 | 84 | 1019.2 |
| 20260506202703 | 37 | 11 | 1.0 | 3.0 | 0.04 | 0.32 | 0.26 | 83 | 1019.4 |
| 20260506201803 | 37 | 296 | 1.0 | 6.0 | 0.04 | 0.32 | 0.26 | 83 | 1019.4 |
| 20260506200903 | 37 | 14 | 1.0 | 4.0 | 0.05 | 0.32 | 0.26 | 86 | 1019.3 |
| 20260506200217 | 37 | 65 | 1.0 | 3.0 | 0.05 | 0.31 | 0.25 | 87 | 1019.2 |
| 20260506195617 | 36 | 53 | 0.0 | 2.0 | 0.05 | 0.30 | 0.25 | 88 | 1019.4 |
| 20260506194503 | 36 | 62 | 1.0 | 3.0 | 0.04 | 0.28 | 0.22 | 89 | 1019.2 |
| 20260506193603 | 35 | 54 | 1.0 | 2.0 | 0.06 | 0.28 | 0.22 | 88 | 1019.2 |
| 20260506192919 | 35 | 56 | 1.0 | 3.0 | 0.07 | 0.28 | 0.22 | 87 | 1019.1 |
| 20260506191803 | 36 | 37 | 1.0 | 4.0 | 0.09 | 0.28 | 0.22 | 88 | 1019.3 |
| 20260506190903 | 36 | 348 | 1.0 | 4.0 | 0.09 | 0.27 | 0.21 | 87 | 1019.3 |
| 20260506190217 | 36 | 349 | 1.0 | 4.0 | 0.09 | 0.26 | 0.20 | 88 | 1019.2 |
| 20260506185403 | 35 | 320 | 1.0 | 3.0 | 0.09 | 0.25 | 0.19 | 90 | 1019.1 |
| 20260506184503 | 35 | 296 | 2.0 | 7.0 | 0.08 | 0.25 | 0.18 | 89 | 1019.4 |
| 20260506183819 | 34 | 294 | 2.0 | 7.0 | 0.07 | 0.23 | 0.16 | 88 | 1019.4 |
| 20260506182918 | 34 | 291 | 3.0 | 6.0 | 0.06 | 0.22 | 0.15 | 90 | 1019.5 |
| 20260506181803 | 34 | 290 | 2.0 | 4.0 | 0.04 | 0.21 | 0.13 | 92 | 1019.7 |
| 20260506181117 | 33 | 293 | 2.0 | 4.0 | 0.04 | 0.20 | 0.12 | 92 | 1019.7 |